Hourly Data Report for October 30, 2016

All times are specified in Local Standard Time (LST). Add 1 hour to adjust for Daylight Saving Time where and when it is observed.

IQALUIT CLIMATE
NUNAVUT

63°44'50.000" N
68°32'40.000" W
33.50 m
2402592
71321
XFB

Download Data

Hourly Data (October 2016)
Hourly Data Report for October 30, 2016
Temp Definition
°C
Dew Point Temp Definition
°C
Rel Hum Definition
%
Wind Dir Definition
10's deg

Wind Spd Definition
km/h
Visibility Definition
km
Stn Press Definition
kPa
Hmdx Definition


Wind Chill Definition


Weather Definition


TIME
00:00 -6.6 -11.0 71 11 24   100.07   -14 LegendNANA
01:00 -5.4 -8.9 76 14 31   99.99   -14 LegendNANA
02:00 -4.8 -7.5 82 15 35   99.92   -13 LegendNANA
03:00 -4.6 -7.2 82 14 38   99.82   -13 LegendNANA
04:00 -4.6 -7.5 80 12 37   99.70   -13 LegendNANA
05:00 -4.3 -6.6 84 12 43   99.61   -13 LegendNANA
06:00 -3.9 -5.7 87 12 43   99.48   -13 LegendNANA
07:00 -3.2 -5.2 86 12 43   99.38   -12 LegendNANA
08:00 -2.5 -3.4 93 13 51   99.28   -12 LegendNANA
09:00 -1.6 -2.5 94 13 52   99.17   -10 LegendNANA
10:00 -1.4 -2.1 95 13 45   99.08   -10 LegendNANA
11:00 -1.4 -2.1 95 17 39   99.09   -9 LegendNANA
12:00 -1.4 -4.6 79 18 27   99.14   -8 LegendNANA
13:00 -1.8 -6.6 69 20 27   99.20   -8 LegendNANA
14:00 -2.7 -7.9 67 18 28   99.26   -10 LegendNANA
15:00 -2.9 -8.0 68 19 32   99.32   -10 LegendNANA
16:00 -3.1 -7.1 74 18 31   99.37   -11 LegendNANA
17:00 -3.3 -9.0 65 19 17   99.42   -9 LegendNANA
18:00 -3.3 -9.3 63 20 27   99.44   -10 LegendNANA
19:00 -3.6 -8.8 67 20 23   99.49   -10 LegendNANA
20:00 -3.8 -8.7 68 20 28   99.52   -11 LegendNANA
21:00 -4.1 -9.2 68 20 17   99.55   -10 LegendNANA
22:00 -3.8 -8.0 72 17 14   99.54   -9 LegendNANA
23:00 -3.4 -7.9 71 22 20   99.57   -10 LegendNANA

Notes on Data Quality.

Legend

  • E = Estimated
  • M = Missing
  • NA = Not Available
  • ‡ = Partner data that is not subject to review by the National Climate Archives
Date modified: